owner,sensor,date,latitude,longitude,vertical_datum,sea_water_practical_salinity,qcFlag 
SCCF RECON,ioos:station:SCCF:51:1,2009-10-01T00:00:00Z,26.5545,-82.1715,1.773,33.31,1111122 
SCCF RECON,ioos:station:SCCF:51:1,2009-10-01T01:00:00Z,26.5545,-82.1715,1.884,34.01,1111122 
SCCF RECON,ioos:station:SCCF:51:1,2009-10-01T02:00:00Z,26.5545,-82.1715,1.994,35.36,1111122 
SCCF RECON,ioos:station:SCCF:51:1,2009-10-01T03:00:00Z,26.5545,-82.1715,2.087,35.54,1111122 
SCCF RECON,ioos:station:SCCF:51:1,2009-10-01T04:00:00Z,26.5545,-82.1715,2.154,35.41,1111122 
SCCF RECON,ioos:station:SCCF:51:1,2009-10-01T05:00:00Z,26.5545,-82.1715,2.139,35.44,1111122 
SCCF RECON,ioos:station:SCCF:51:1,2009-10-01T06:00:00Z,26.5545,-82.1715,2.084,34.93,1111122 
SCCF RECON,ioos:station:SCCF:51:1,2009-10-01T07:00:00Z,26.5545,-82.1715,1.992,34.19,1111122 
SCCF RECON,ioos:station:SCCF:51:1,2009-10-01T08:00:00Z,26.5545,-82.1715,1.897,33.77,1111122 
SCCF RECON,ioos:station:SCCF:51:1,2009-10-01T09:00:00Z,26.5545,-82.1715,1.815,33.58,1111122 
SCCF RECON,ioos:station:SCCF:51:1,2009-10-01T10:00:00Z,26.5545,-82.1715,1.805,33.55,1111122 
SCCF RECON,ioos:station:SCCF:51:1,2009-10-01T11:00:00Z,26.5545,-82.1715,1.859,33.69,1111122 
SCCF RECON,ioos:station:SCCF:51:1,2009-10-01T12:00:00Z,26.5545,-82.1715,1.936,34.4,1111122 
SCCF RECON,ioos:station:SCCF:51:1,2009-10-01T13:00:00Z,26.5545,-82.1715,2.01,34.68,1111122 
SCCF RECON,ioos:station:SCCF:51:1,2009-10-01T14:00:00Z,26.5545,-82.1715,2.098,35.16,1111122 
SCCF RECON,ioos:station:SCCF:51:1,2009-10-01T15:00:00Z,26.5545,-82.1715,2.169,35.63,1111122 
SCCF RECON,ioos:station:SCCF:51:1,2009-10-01T16:00:00Z,26.5545,-82.1715,2.192,35.37,1111122 
SCCF RECON,ioos:station:SCCF:51:1,2009-10-01T17:00:00Z,26.5545,-82.1715,2.164,35.39,1111122 
SCCF RECON,ioos:station:SCCF:51:1,2009-10-01T18:00:00Z,26.5545,-82.1715,2.085,34.93,1111122 
SCCF RECON,ioos:station:SCCF:51:1,2009-10-01T19:00:00Z,26.5545,-82.1715,1.99,34.2,1111122 
SCCF RECON,ioos:station:SCCF:51:1,2009-10-01T20:00:00Z,26.5545,-82.1715,1.888,34.01,1111122 
SCCF RECON,ioos:station:SCCF:51:1,2009-10-01T21:00:00Z,26.5545,-82.1715,1.8,34.03,1111122 
SCCF RECON,ioos:station:SCCF:51:1,2009-10-01T22:00:00Z,26.5545,-82.1715,1.741,33.66,1111122 
SCCF RECON,ioos:station:SCCF:51:1,2009-10-01T23:00:00Z,26.5545,-82.1715,1.723,33.3,1111122 
SCCF RECON,ioos:station:SCCF:51:1,2009-10-02T00:00:00Z,26.5545,-82.1715,1.771,33.65,1111122 
SCCF RECON,ioos:station:SCCF:51:1,2009-10-02T01:00:00Z,26.5545,-82.1715,1.86,34.56,1111122 
SCCF RECON,ioos:station:SCCF:51:1,2009-10-02T02:00:00Z,26.5545,-82.1715,1.971,35.13,1111122 
SCCF RECON,ioos:station:SCCF:51:1,2009-10-02T03:00:00Z,26.5545,-82.1715,2.099,35.5,1111122 
SCCF RECON,ioos:station:SCCF:51:1,2009-10-02T04:00:00Z,26.5545,-82.1715,2.177,35.43,1111122 
SCCF RECON,ioos:station:SCCF:51:1,2009-10-02T05:00:00Z,26.5545,-82.1715,2.197,35.45,1111122 
SCCF RECON,ioos:station:SCCF:51:1,2009-10-02T06:00:00Z,26.5545,-82.1715,2.131,35.44,1111122 
SCCF RECON,ioos:station:SCCF:51:1,2009-10-02T07:00:00Z,26.5545,-82.1715,2.029,34.88,1111122 
SCCF RECON,ioos:station:SCCF:51:1,2009-10-02T08:00:00Z,26.5545,-82.1715,1.919,34.27,1111122 
SCCF RECON,ioos:station:SCCF:51:1,2009-10-02T09:00:00Z,26.5545,-82.1715,1.82,33.99,1111122 
SCCF RECON,ioos:station:SCCF:51:1,2009-10-02T10:00:00Z,26.5545,-82.1715,1.77,34.33,1111122 
SCCF RECON,ioos:station:SCCF:51:1,2009-10-02T11:00:00Z,26.5545,-82.1715,1.778,34.54,1111122 
SCCF RECON,ioos:station:SCCF:51:1,2009-10-02T12:00:00Z,26.5545,-82.1715,1.838,34.61,1111122 
SCCF RECON,ioos:station:SCCF:51:1,2009-10-02T13:00:00Z,26.5545,-82.1715,1.93,34.51,1111122 
SCCF RECON,ioos:station:SCCF:51:1,2009-10-02T14:00:00Z,26.5545,-82.1715,2.049,35.06,1111122 
SCCF RECON,ioos:station:SCCF:51:1,2009-10-02T15:00:00Z,26.5545,-82.1715,2.15,35.16,1111122 
SCCF RECON,ioos:station:SCCF:51:1,2009-10-02T16:00:00Z,26.5545,-82.1715,2.214,35.07,1111122 
SCCF RECON,ioos:station:SCCF:51:1,2009-10-02T17:00:00Z,26.5545,-82.1715,2.22,35.1,1111122 
SCCF RECON,ioos:station:SCCF:51:1,2009-10-02T18:00:00Z,26.5545,-82.1715,2.167,35.26,1111122 
SCCF RECON,ioos:station:SCCF:51:1,2009-10-02T19:00:00Z,26.5545,-82.1715,2.07,34.83,1111122 
SCCF RECON,ioos:station:SCCF:51:1,2009-10-02T20:00:00Z,26.5545,-82.1715,1.953,34.25,1111122 
SCCF RECON,ioos:station:SCCF:51:1,2009-10-02T21:00:00Z,26.5545,-82.1715,1.845,34.39,1111122 
SCCF RECON,ioos:station:SCCF:51:1,2009-10-02T22:00:00Z,26.5545,-82.1715,1.763,34.09,1111122 
SCCF RECON,ioos:station:SCCF:51:1,2009-10-02T23:00:00Z,26.5545,-82.1715,1.743,34.29,1111122 
SCCF RECON,ioos:station:SCCF:51:1,2009-10-03T00:00:00Z,26.5545,-82.1715,1.77,34.63,1111122 
SCCF RECON,ioos:station:SCCF:51:1,2009-10-03T01:00:00Z,26.5545,-82.1715,1.85,34.62,1111122 
SCCF RECON,ioos:station:SCCF:51:1,2009-10-03T02:00:00Z,26.5545,-82.1715,1.95,34.95,1111122 
SCCF RECON,ioos:station:SCCF:51:1,2009-10-03T03:00:00Z,26.5545,-82.1715,2.062,35.19,1111122 
SCCF RECON,ioos:station:SCCF:51:1,2009-10-03T04:00:00Z,26.5545,-82.1715,2.15,35.02,1111122 
SCCF RECON,ioos:station:SCCF:51:1,2009-10-03T05:00:00Z,26.5545,-82.1715,2.178,35.2,1111122 
SCCF RECON,ioos:station:SCCF:51:1,2009-10-03T06:00:00Z,26.5545,-82.1715,2.147,35.14,1111122 
SCCF RECON,ioos:station:SCCF:51:1,2009-10-03T07:00:00Z,26.5545,-82.1715,2.07,34.63,1111122 
SCCF RECON,ioos:station:SCCF:51:1,2009-10-03T08:00:00Z,26.5545,-82.1715,1.96,34.48,1111122 
SCCF RECON,ioos:station:SCCF:51:1,2009-10-03T09:00:00Z,26.5545,-82.1715,1.836,34.04,1111122 
SCCF RECON,ioos:station:SCCF:51:1,2009-10-03T10:00:00Z,26.5545,-82.1715,1.728,33.73,1111122 
SCCF RECON,ioos:station:SCCF:51:1,2009-10-03T11:00:00Z,26.5545,-82.1715,1.66,33.86,1111122 
SCCF RECON,ioos:station:SCCF:51:1,2009-10-03T12:00:00Z,26.5545,-82.1715,1.66,34.19,1111122 
SCCF RECON,ioos:station:SCCF:51:1,2009-10-03T13:00:00Z,26.5545,-82.1715,1.755,33.28,1111122 
SCCF RECON,ioos:station:SCCF:51:1,2009-10-03T14:00:00Z,26.5545,-82.1715,1.871,34.72,1111122 
SCCF RECON,ioos:station:SCCF:51:1,2009-10-03T15:00:00Z,26.5545,-82.1715,2.031,35.12,1111122 
SCCF RECON,ioos:station:SCCF:51:1,2009-10-03T16:00:00Z,26.5545,-82.1715,2.146,34.85,1111122 
SCCF RECON,ioos:station:SCCF:51:1,2009-10-03T17:00:00Z,26.5545,-82.1715,2.19,35.02,1111122 
SCCF RECON,ioos:station:SCCF:51:1,2009-10-03T18:00:00Z,26.5545,-82.1715,2.171,35.27,1111122 
SCCF RECON,ioos:station:SCCF:51:1,2009-10-03T19:00:00Z,26.5545,-82.1715,2.108,35.05,1111122 
SCCF RECON,ioos:station:SCCF:51:1,2009-10-03T20:00:00Z,26.5545,-82.1715,2.01,34.42,1111122 
SCCF RECON,ioos:station:SCCF:51:1,2009-10-03T21:00:00Z,26.5545,-82.1715,1.902,34.11,1111122 
SCCF RECON,ioos:station:SCCF:51:1,2009-10-03T22:00:00Z,26.5545,-82.1715,1.819,34.03,1111122 
SCCF RECON,ioos:station:SCCF:51:1,2009-10-03T23:00:00Z,26.5545,-82.1715,1.76,34.29,1111122 
SCCF RECON,ioos:station:SCCF:51:1,2009-10-04T00:00:00Z,26.5545,-82.1715,1.762,34.28,1111122 
SCCF RECON,ioos:station:SCCF:51:1,2009-10-04T01:00:00Z,26.5545,-82.1715,1.83,34.31,1111122 
SCCF RECON,ioos:station:SCCF:51:1,2009-10-04T02:00:00Z,26.5545,-82.1715,1.928,34.31,1111122 
SCCF RECON,ioos:station:SCCF:51:1,2009-10-04T03:00:00Z,26.5545,-82.1715,2.061,35.03,1111122 
SCCF RECON,ioos:station:SCCF:51:1,2009-10-04T04:00:00Z,26.5545,-82.1715,2.17,35.14,1111122 
SCCF RECON,ioos:station:SCCF:51:1,2009-10-04T05:00:00Z,26.5545,-82.1715,2.215,35.11,1111122 
SCCF RECON,ioos:station:SCCF:51:1,2009-10-04T06:00:00Z,26.5545,-82.1715,2.192,35.11,1111122 
SCCF RECON,ioos:station:SCCF:51:1,2009-10-04T07:00:00Z,26.5545,-82.1715,2.11,34.96,1111122 
SCCF RECON,ioos:station:SCCF:51:1,2009-10-04T08:00:00Z,26.5545,-82.1715,2.0,34.51,1111122 
SCCF RECON,ioos:station:SCCF:51:1,2009-10-04T09:00:00Z,26.5545,-82.1715,1.869,33.6,1111122 
SCCF RECON,ioos:station:SCCF:51:1,2009-10-04T10:00:00Z,26.5545,-82.1715,1.745,33.24,1111122 
SCCF RECON,ioos:station:SCCF:51:1,2009-10-04T11:00:00Z,26.5545,-82.1715,1.64,33.2,1111122 
SCCF RECON,ioos:station:SCCF:51:1,2009-10-04T12:00:00Z,26.5545,-82.1715,1.589,33.0,1111122 
SCCF RECON,ioos:station:SCCF:51:1,2009-10-04T13:00:00Z,26.5545,-82.1715,1.627,33.37,1111122 
SCCF RECON,ioos:station:SCCF:51:1,2009-10-04T14:00:00Z,26.5545,-82.1715,1.73,33.84,1111122 
SCCF RECON,ioos:station:SCCF:51:1,2009-10-04T15:00:00Z,26.5545,-82.1715,1.876,34.48,1111122 
SCCF RECON,ioos:station:SCCF:51:1,2009-10-04T16:00:00Z,26.5545,-82.1715,2.029,34.88,1111122 
SCCF RECON,ioos:station:SCCF:51:1,2009-10-04T17:00:00Z,26.5545,-82.1715,2.12,34.68,1111122 
SCCF RECON,ioos:station:SCCF:51:1,2009-10-04T18:00:00Z,26.5545,-82.1715,2.147,34.97,1111122 
SCCF RECON,ioos:station:SCCF:51:1,2009-10-04T19:00:00Z,26.5545,-82.1715,2.118,34.84,1111122 
SCCF RECON,ioos:station:SCCF:51:1,2009-10-04T20:00:00Z,26.5545,-82.1715,2.054,34.61,1111122 
SCCF RECON,ioos:station:SCCF:51:1,2009-10-04T21:00:00Z,26.5545,-82.1715,1.984,34.51,1111122 
SCCF RECON,ioos:station:SCCF:51:1,2009-10-04T22:00:00Z,26.5545,-82.1715,1.913,33.85,1111122 
SCCF RECON,ioos:station:SCCF:51:1,2009-10-04T23:00:00Z,26.5545,-82.1715,1.859,33.62,1111122 
SCCF RECON,ioos:station:SCCF:51:1,2009-10-05T00:00:00Z,26.5545,-82.1715,1.84,33.7,1111122 
SCCF RECON,ioos:station:SCCF:51:1,2009-10-05T01:00:00Z,26.5545,-82.1715,1.889,33.5,1111122 
SCCF RECON,ioos:station:SCCF:51:1,2009-10-05T02:00:00Z,26.5545,-82.1715,1.96,33.86,1111122 
SCCF RECON,ioos:station:SCCF:51:1,2009-10-05T03:00:00Z,26.5545,-82.1715,2.07,34.86,1111122 
SCCF RECON,ioos:station:SCCF:51:1,2009-10-05T04:00:00Z,26.5545,-82.1715,2.192,34.98,1111122 
SCCF RECON,ioos:station:SCCF:51:1,2009-10-05T05:00:00Z,26.5545,-82.1715,2.257,34.63,1111122 
SCCF RECON,ioos:station:SCCF:51:1,2009-10-05T06:00:00Z,26.5545,-82.1715,2.244,34.82,1111122 
SCCF RECON,ioos:station:SCCF:51:1,2009-10-05T07:00:00Z,26.5545,-82.1715,2.182,34.27,1111122 
SCCF RECON,ioos:station:SCCF:51:1,2009-10-05T08:00:00Z,26.5545,-82.1715,2.092,33.45,1111122 
SCCF RECON,ioos:station:SCCF:51:1,2009-10-05T09:00:00Z,26.5545,-82.1715,1.974,33.3,1111122 
SCCF RECON,ioos:station:SCCF:51:1,2009-10-05T10:00:00Z,26.5545,-82.1715,1.838,32.91,1111122 
SCCF RECON,ioos:station:SCCF:51:1,2009-10-05T11:00:00Z,26.5545,-82.1715,1.718,32.01,1111122 
SCCF RECON,ioos:station:SCCF:51:1,2009-10-05T12:00:00Z,26.5545,-82.1715,1.623,31.99,1111122 
SCCF RECON,ioos:station:SCCF:51:1,2009-10-05T13:00:00Z,26.5545,-82.1715,1.584,32.62,1111122 
SCCF RECON,ioos:station:SCCF:51:1,2009-10-05T14:00:00Z,26.5545,-82.1715,1.663,32.26,1111122 
SCCF RECON,ioos:station:SCCF:51:1,2009-10-05T15:00:00Z,26.5545,-82.1715,1.794,32.76,1111122 
SCCF RECON,ioos:station:SCCF:51:1,2009-10-05T16:00:00Z,26.5545,-82.1715,1.964,34.09,1111122 
SCCF RECON,ioos:station:SCCF:51:1,2009-10-05T17:00:00Z,26.5545,-82.1715,2.09,33.96,1111122 
SCCF RECON,ioos:station:SCCF:51:1,2009-10-05T18:00:00Z,26.5545,-82.1715,2.145,34.21,1111122 
SCCF RECON,ioos:station:SCCF:51:1,2009-10-05T19:00:00Z,26.5545,-82.1715,2.146,34.76,1111122 
SCCF RECON,ioos:station:SCCF:51:1,2009-10-05T20:00:00Z,26.5545,-82.1715,2.095,34.41,1111122 
SCCF RECON,ioos:station:SCCF:51:1,2009-10-05T21:00:00Z,26.5545,-82.1715,2.055,33.52,1111122 
SCCF RECON,ioos:station:SCCF:51:1,2009-10-05T22:00:00Z,26.5545,-82.1715,1.965,32.67,1111122 
SCCF RECON,ioos:station:SCCF:51:1,2009-10-05T23:00:00Z,26.5545,-82.1715,1.909,32.49,1111122 
SCCF RECON,ioos:station:SCCF:51:1,2009-10-06T00:00:00Z,26.5545,-82.1715,1.87,33.24,1111122 
SCCF RECON,ioos:station:SCCF:51:1,2009-10-06T01:00:00Z,26.5545,-82.1715,1.9,33.26,1111122 
SCCF RECON,ioos:station:SCCF:51:1,2009-10-06T02:00:00Z,26.5545,-82.1715,1.95,32.7,1111122 
SCCF RECON,ioos:station:SCCF:51:1,2009-10-06T03:00:00Z,26.5545,-82.1715,2.04,33.58,1111122 
SCCF RECON,ioos:station:SCCF:51:1,2009-10-06T04:00:00Z,26.5545,-82.1715,2.151,34.79,1111122 
SCCF RECON,ioos:station:SCCF:51:1,2009-10-06T05:00:00Z,26.5545,-82.1715,2.25,34.82,1111122 
SCCF RECON,ioos:station:SCCF:51:1,2009-10-06T06:00:00Z,26.5545,-82.1715,2.28,34.8,1111122 
SCCF RECON,ioos:station:SCCF:51:1,2009-10-06T07:00:00Z,26.5545,-82.1715,2.24,34.81,1111122 
SCCF RECON,ioos:station:SCCF:51:1,2009-10-06T08:00:00Z,26.5545,-82.1715,2.16,34.64,1111122 
SCCF RECON,ioos:station:SCCF:51:1,2009-10-06T09:00:00Z,26.5545,-82.1715,2.05,33.6,1111122 
SCCF RECON,ioos:station:SCCF:51:1,2009-10-06T10:00:00Z,26.5545,-82.1715,1.917,32.8,1111122 
SCCF RECON,ioos:station:SCCF:51:1,2009-10-06T11:00:00Z,26.5545,-82.1715,1.779,32.96,1111122 
SCCF RECON,ioos:station:SCCF:51:1,2009-10-06T12:00:00Z,26.5545,-82.1715,1.66,32.2,1111122 
SCCF RECON,ioos:station:SCCF:51:1,2009-10-06T13:00:00Z,26.5545,-82.1715,1.57,32.24,1111122 
SCCF RECON,ioos:station:SCCF:51:1,2009-10-06T14:00:00Z,26.5545,-82.1715,1.565,33.28,1111122 
SCCF RECON,ioos:station:SCCF:51:1,2009-10-06T15:00:00Z,26.5545,-82.1715,1.651,33.19,1111122 
SCCF RECON,ioos:station:SCCF:51:1,2009-10-06T16:00:00Z,26.5545,-82.1715,1.787,33.75,1111122 
SCCF RECON,ioos:station:SCCF:51:1,2009-10-06T17:00:00Z,26.5545,-82.1715,1.949,34.4,1111122 
SCCF RECON,ioos:station:SCCF:51:1,2009-10-06T18:00:00Z,26.5545,-82.1715,2.057,34.24,1111122 
SCCF RECON,ioos:station:SCCF:51:1,2009-10-06T19:00:00Z,26.5545,-82.1715,2.111,34.46,1111122 
SCCF RECON,ioos:station:SCCF:51:1,2009-10-06T20:00:00Z,26.5545,-82.1715,2.107,34.72,1111122 
SCCF RECON,ioos:station:SCCF:51:1,2009-10-06T21:00:00Z,26.5545,-82.1715,2.061,34.21,1111122 
SCCF RECON,ioos:station:SCCF:51:1,2009-10-06T22:00:00Z,26.5545,-82.1715,2.0,32.89,1111122 
SCCF RECON,ioos:station:SCCF:51:1,2009-10-06T23:00:00Z,26.5545,-82.1715,1.95,32.77,1111122 
SCCF RECON,ioos:station:SCCF:51:1,2009-10-07T00:00:00Z,26.5545,-82.1715,1.93,32.08,1111122 
SCCF RECON,ioos:station:SCCF:51:1,2009-10-07T01:00:00Z,26.5545,-82.1715,1.97,32.41,1111122 
SCCF RECON,ioos:station:SCCF:51:1,2009-10-07T02:00:00Z,26.5545,-82.1715,2.02,33.03,1111122 
SCCF RECON,ioos:station:SCCF:51:1,2009-10-07T03:00:00Z,26.5545,-82.1715,2.09,33.84,1111122 
SCCF RECON,ioos:station:SCCF:51:1,2009-10-07T04:00:00Z,26.5545,-82.1715,2.189,34.47,1111122 
SCCF RECON,ioos:station:SCCF:51:1,2009-10-07T05:00:00Z,26.5545,-82.1715,2.28,34.59,1111122 
SCCF RECON,ioos:station:SCCF:51:1,2009-10-07T06:00:00Z,26.5545,-82.1715,2.323,34.58,1111122 
SCCF RECON,ioos:station:SCCF:51:1,2009-10-07T07:00:00Z,26.5545,-82.1715,2.32,34.57,1111122 
SCCF RECON,ioos:station:SCCF:51:1,2009-10-07T08:00:00Z,26.5545,-82.1715,2.254,34.45,1111122 
SCCF RECON,ioos:station:SCCF:51:1,2009-10-07T09:00:00Z,26.5545,-82.1715,2.15,34.02,1111122 
SCCF RECON,ioos:station:SCCF:51:1,2009-10-07T10:00:00Z,26.5545,-82.1715,2.03,33.98,1111122 
SCCF RECON,ioos:station:SCCF:51:1,2009-10-07T11:00:00Z,26.5545,-82.1715,1.9,33.78,1111122 
SCCF RECON,ioos:station:SCCF:51:1,2009-10-07T12:00:00Z,26.5545,-82.1715,1.78,33.46,1111122 
SCCF RECON,ioos:station:SCCF:51:1,2009-10-07T13:00:00Z,26.5545,-82.1715,1.678,33.37,1111122 
SCCF RECON,ioos:station:SCCF:51:1,2009-10-07T14:00:00Z,26.5545,-82.1715,1.6,32.92,1111122 
SCCF RECON,ioos:station:SCCF:51:1,2009-10-07T15:00:00Z,26.5545,-82.1715,1.619,33.22,1111122 
SCCF RECON,ioos:station:SCCF:51:1,2009-10-07T16:00:00Z,26.5545,-82.1715,1.7,32.78,1111122 
SCCF RECON,ioos:station:SCCF:51:1,2009-10-07T17:00:00Z,26.5545,-82.1715,1.819,33.45,1111122 
SCCF RECON,ioos:station:SCCF:51:1,2009-10-07T18:00:00Z,26.5545,-82.1715,1.94,34.22,1111122 
SCCF RECON,ioos:station:SCCF:51:1,2009-10-07T19:00:00Z,26.5545,-82.1715,2.019,34.04,1111122 
SCCF RECON,ioos:station:SCCF:51:1,2009-10-07T20:00:00Z,26.5545,-82.1715,2.048,34.33,1111122 
SCCF RECON,ioos:station:SCCF:51:1,2009-10-07T21:00:00Z,26.5545,-82.1715,2.046,34.08,1111122 
SCCF RECON,ioos:station:SCCF:51:1,2009-10-07T22:00:00Z,26.5545,-82.1715,2.006,33.87,1111122 
SCCF RECON,ioos:station:SCCF:51:1,2009-10-07T23:00:00Z,26.5545,-82.1715,1.97,33.26,1111122 
SCCF RECON,ioos:station:SCCF:51:1,2009-10-08T00:00:00Z,26.5545,-82.1715,1.934,32.45,1111122 
SCCF RECON,ioos:station:SCCF:51:1,2009-10-08T01:00:00Z,26.5545,-82.1715,1.925,32.75,1111122 
SCCF RECON,ioos:station:SCCF:51:1,2009-10-08T02:00:00Z,26.5545,-82.1715,1.96,32.82,1111122 
SCCF RECON,ioos:station:SCCF:51:1,2009-10-08T03:00:00Z,26.5545,-82.1715,2.016,33.18,1111122 
SCCF RECON,ioos:station:SCCF:51:1,2009-10-08T04:00:00Z,26.5545,-82.1715,2.091,34.14,1111122 
SCCF RECON,ioos:station:SCCF:51:1,2009-10-08T05:00:00Z,26.5545,-82.1715,2.181,34.6,1111122 
SCCF RECON,ioos:station:SCCF:51:1,2009-10-08T06:00:00Z,26.5545,-82.1715,2.253,34.65,1111122 
SCCF RECON,ioos:station:SCCF:51:1,2009-10-08T07:00:00Z,26.5545,-82.1715,2.269,34.73,1111122 
SCCF RECON,ioos:station:SCCF:51:1,2009-10-08T08:00:00Z,26.5545,-82.1715,2.221,34.71,1111122 
SCCF RECON,ioos:station:SCCF:51:1,2009-10-08T09:00:00Z,26.5545,-82.1715,2.149,34.54,1111122 
SCCF RECON,ioos:station:SCCF:51:1,2009-10-08T10:00:00Z,26.5545,-82.1715,2.052,34.0,1111122 
SCCF RECON,ioos:station:SCCF:51:1,2009-10-08T11:00:00Z,26.5545,-82.1715,1.94,33.18,1111122 
SCCF RECON,ioos:station:SCCF:51:1,2009-10-08T12:00:00Z,26.5545,-82.1715,1.813,32.62,1111122 
SCCF RECON,ioos:station:SCCF:51:1,2009-10-08T13:00:00Z,26.5545,-82.1715,1.697,32.48,1111122 
SCCF RECON,ioos:station:SCCF:51:1,2009-10-08T14:00:00Z,26.5545,-82.1715,1.595,32.36,1111122 
SCCF RECON,ioos:station:SCCF:51:1,2009-10-08T15:00:00Z,26.5545,-82.1715,1.52,32.17,1111122 
SCCF RECON,ioos:station:SCCF:51:1,2009-10-08T16:00:00Z,26.5545,-82.1715,1.531,32.31,1111122 
SCCF RECON,ioos:station:SCCF:51:1,2009-10-08T17:00:00Z,26.5545,-82.1715,1.616,32.28,1111122 
SCCF RECON,ioos:station:SCCF:51:1,2009-10-08T18:00:00Z,26.5545,-82.1715,1.73,33.39,1111122 
SCCF RECON,ioos:station:SCCF:51:1,2009-10-08T19:00:00Z,26.5545,-82.1715,1.84,34.47,1111122 
SCCF RECON,ioos:station:SCCF:51:1,2009-10-08T20:00:00Z,26.5545,-82.1715,1.927,34.73,1111122 
SCCF RECON,ioos:station:SCCF:51:1,2009-10-08T21:00:00Z,26.5545,-82.1715,1.98,34.55,1111122 
SCCF RECON,ioos:station:SCCF:51:1,2009-10-08T22:00:00Z,26.5545,-82.1715,1.999,34.6,1111122 
SCCF RECON,ioos:station:SCCF:51:1,2009-10-08T23:00:00Z,26.5545,-82.1715,1.979,34.01,1111122 
SCCF RECON,ioos:station:SCCF:51:1,2009-10-09T00:00:00Z,26.5545,-82.1715,1.959,33.41,1111122 
SCCF RECON,ioos:station:SCCF:51:1,2009-10-09T01:00:00Z,26.5545,-82.1715,1.95,32.95,1111122 
SCCF RECON,ioos:station:SCCF:51:1,2009-10-09T02:00:00Z,26.5545,-82.1715,1.98,33.0,1111122 
SCCF RECON,ioos:station:SCCF:51:1,2009-10-09T03:00:00Z,26.5545,-82.1715,2.04,33.93,1111122 
SCCF RECON,ioos:station:SCCF:51:1,2009-10-09T04:00:00Z,26.5545,-82.1715,2.102,34.55,1111122 
SCCF RECON,ioos:station:SCCF:51:1,2009-10-09T05:00:00Z,26.5545,-82.1715,2.176,34.47,1111122 
SCCF RECON,ioos:station:SCCF:51:1,2009-10-09T06:00:00Z,26.5545,-82.1715,2.222,34.73,1111122 
SCCF RECON,ioos:station:SCCF:51:1,2009-10-09T07:00:00Z,26.5545,-82.1715,2.249,34.47,1111122 
SCCF RECON,ioos:station:SCCF:51:1,2009-10-09T08:00:00Z,26.5545,-82.1715,2.245,34.53,1111122 
SCCF RECON,ioos:station:SCCF:51:1,2009-10-09T09:00:00Z,26.5545,-82.1715,2.214,33.86,1111122 
SCCF RECON,ioos:station:SCCF:51:1,2009-10-09T10:00:00Z,26.5545,-82.1715,2.165,33.48,1111122 
SCCF RECON,ioos:station:SCCF:51:1,2009-10-09T11:00:00Z,26.5545,-82.1715,2.087,32.96,1111122 
SCCF RECON,ioos:station:SCCF:51:1,2009-10-09T12:00:00Z,26.5545,-82.1715,1.986,32.5,1111122 
SCCF RECON,ioos:station:SCCF:51:1,2009-10-09T13:00:00Z,26.5545,-82.1715,1.869,31.84,1111122 
SCCF RECON,ioos:station:SCCF:51:1,2009-10-09T14:00:00Z,26.5545,-82.1715,1.75,31.72,1111122 
SCCF RECON,ioos:station:SCCF:51:1,2009-10-09T15:00:00Z,26.5545,-82.1715,1.648,31.59,1111122 
SCCF RECON,ioos:station:SCCF:51:1,2009-10-09T16:00:00Z,26.5545,-82.1715,1.58,32.03,1111122 
SCCF RECON,ioos:station:SCCF:51:1,2009-10-09T17:00:00Z,26.5545,-82.1715,1.599,32.47,1111122 
SCCF RECON,ioos:station:SCCF:51:1,2009-10-09T18:00:00Z,26.5545,-82.1715,1.673,32.26,1111122 
SCCF RECON,ioos:station:SCCF:51:1,2009-10-09T19:00:00Z,26.5545,-82.1715,1.773,33.51,1111122 
SCCF RECON,ioos:station:SCCF:51:1,2009-10-09T20:00:00Z,26.5545,-82.1715,1.86,34.48,1111122 
SCCF RECON,ioos:station:SCCF:51:1,2009-10-09T21:00:00Z,26.5545,-82.1715,1.92,34.76,1111122 
SCCF RECON,ioos:station:SCCF:51:1,2009-10-09T22:00:00Z,26.5545,-82.1715,1.958,34.47,1111122 
SCCF RECON,ioos:station:SCCF:51:1,2009-10-09T23:00:00Z,26.5545,-82.1715,1.98,34.38,1111122 
SCCF RECON,ioos:station:SCCF:51:1,2009-10-10T00:00:00Z,26.5545,-82.1715,2.004,34.26,1111122 
SCCF RECON,ioos:station:SCCF:51:1,2009-10-10T01:00:00Z,26.5545,-82.1715,2.005,34.27,1111122 
SCCF RECON,ioos:station:SCCF:51:1,2009-10-10T02:00:00Z,26.5545,-82.1715,2.001,33.69,1111122 
SCCF RECON,ioos:station:SCCF:51:1,2009-10-10T03:00:00Z,26.5545,-82.1715,2.014,33.25,1111122 
SCCF RECON,ioos:station:SCCF:51:1,2009-10-10T04:00:00Z,26.5545,-82.1715,2.064,32.94,1111122 
SCCF RECON,ioos:station:SCCF:51:1,2009-10-10T05:00:00Z,26.5545,-82.1715,2.099,32.96,1111122 
SCCF RECON,ioos:station:SCCF:51:1,2009-10-10T06:00:00Z,26.5545,-82.1715,2.159,34.75,1111122 
SCCF RECON,ioos:station:SCCF:51:1,2009-10-10T07:00:00Z,26.5545,-82.1715,2.213,35.31,1111122 
SCCF RECON,ioos:station:SCCF:51:1,2009-10-10T08:00:00Z,26.5545,-82.1715,2.237,35.27,1111122 
SCCF RECON,ioos:station:SCCF:51:1,2009-10-10T09:00:00Z,26.5545,-82.1715,2.224,35.26,1111122 
SCCF RECON,ioos:station:SCCF:51:1,2009-10-10T10:00:00Z,26.5545,-82.1715,2.19,35.27,1111122 
SCCF RECON,ioos:station:SCCF:51:1,2009-10-10T11:00:00Z,26.5545,-82.1715,2.15,34.05,1111122 
SCCF RECON,ioos:station:SCCF:51:1,2009-10-10T12:00:00Z,26.5545,-82.1715,2.077,32.73,1111122 
SCCF RECON,ioos:station:SCCF:51:1,2009-10-10T13:00:00Z,26.5545,-82.1715,1.983,32.67,1111122 
SCCF RECON,ioos:station:SCCF:51:1,2009-10-10T14:00:00Z,26.5545,-82.1715,1.871,31.77,1111122 
SCCF RECON,ioos:station:SCCF:51:1,2009-10-10T15:00:00Z,26.5545,-82.1715,1.75,31.68,1111122 
SCCF RECON,ioos:station:SCCF:51:1,2009-10-10T16:00:00Z,26.5545,-82.1715,1.651,31.46,1111122 
SCCF RECON,ioos:station:SCCF:51:1,2009-10-10T17:00:00Z,26.5545,-82.1715,1.58,31.39,1111122 
SCCF RECON,ioos:station:SCCF:51:1,2009-10-10T18:00:00Z,26.5545,-82.1715,1.6,31.74,1111122 
SCCF RECON,ioos:station:SCCF:51:1,2009-10-10T19:00:00Z,26.5545,-82.1715,1.679,31.8,1111122 
SCCF RECON,ioos:station:SCCF:51:1,2009-10-10T20:00:00Z,26.5545,-82.1715,1.77,33.08,1111122 
SCCF RECON,ioos:station:SCCF:51:1,2009-10-10T21:00:00Z,26.5545,-82.1715,1.848,33.96,1111122 
SCCF RECON,ioos:station:SCCF:51:1,2009-10-10T22:00:00Z,26.5545,-82.1715,1.913,34.39,1111122 
SCCF RECON,ioos:station:SCCF:51:1,2009-10-10T23:00:00Z,26.5545,-82.1715,1.962,34.47,1111122 
SCCF RECON,ioos:station:SCCF:51:1,2009-10-11T00:00:00Z,26.5545,-82.1715,2.0,34.43,1111122 
SCCF RECON,ioos:station:SCCF:51:1,2009-10-11T01:00:00Z,26.5545,-82.1715,2.04,34.35,1111122 
SCCF RECON,ioos:station:SCCF:51:1,2009-10-11T02:00:00Z,26.5545,-82.1715,2.049,34.55,1111122 
SCCF RECON,ioos:station:SCCF:51:1,2009-10-11T03:00:00Z,26.5545,-82.1715,2.039,34.59,1111122 
SCCF RECON,ioos:station:SCCF:51:1,2009-10-11T04:00:00Z,26.5545,-82.1715,2.03,33.97,1111122 
SCCF RECON,ioos:station:SCCF:51:1,2009-10-11T05:00:00Z,26.5545,-82.1715,2.048,34.22,1111122 
SCCF RECON,ioos:station:SCCF:51:1,2009-10-11T06:00:00Z,26.5545,-82.1715,2.08,34.33,1111122 
SCCF RECON,ioos:station:SCCF:51:1,2009-10-11T07:00:00Z,26.5545,-82.1715,2.1,34.26,1111122 
SCCF RECON,ioos:station:SCCF:51:1,2009-10-11T08:00:00Z,26.5545,-82.1715,2.13,34.27,1111122 
SCCF RECON,ioos:station:SCCF:51:1,2009-10-11T09:00:00Z,26.5545,-82.1715,2.17,33.53,1111122 
SCCF RECON,ioos:station:SCCF:51:1,2009-10-11T10:00:00Z,26.5545,-82.1715,2.18,33.8,1111122 
SCCF RECON,ioos:station:SCCF:51:1,2009-10-11T11:00:00Z,26.5545,-82.1715,2.163,34.77,1111122 
SCCF RECON,ioos:station:SCCF:51:1,2009-10-11T12:00:00Z,26.5545,-82.1715,2.14,34.51,1111122 
SCCF RECON,ioos:station:SCCF:51:1,2009-10-11T13:00:00Z,26.5545,-82.1715,2.08,34.57,1111122 
SCCF RECON,ioos:station:SCCF:51:1,2009-10-11T14:00:00Z,26.5545,-82.1715,1.989,34.43,1111122 
SCCF RECON,ioos:station:SCCF:51:1,2009-10-11T15:00:00Z,26.5545,-82.1715,1.868,33.61,1111122 
SCCF RECON,ioos:station:SCCF:51:1,2009-10-11T16:00:00Z,26.5545,-82.1715,1.751,32.4,1111122 
SCCF RECON,ioos:station:SCCF:51:1,2009-10-11T17:00:00Z,26.5545,-82.1715,1.641,33.14,1111122 